FW0710 Weather Reports


time (UTC)temp
F
wind
direction
speed
knots
gust
knots
rain 1hr
in
rain 24hr
in
rain mn
in
humidity
%
barometer
mb
20260504205044 44 311 1.7 6.1 0.00 0.00 0.00 53 1003.6
20260504204551 44 290 0.9 6.1 0.00 0.00 0.00 55 1003.6
20260504204044 44 290 0.9 7.0 0.00 0.00 0.00 54 1003.6
20260504203543 45 319 1.7 7.0 0.00 0.00 0.00 52 1003.7
20260504203050 45 0 0.9 6.1 0.00 0.00 0.00 58 1003.7
20260504202543 43 288 0.9 6.1 0.00 0.00 0.00 58 1003.7
20260504202043 43 296 0.9 6.1 0.00 0.00 0.00 57 1003.7
20260504201549 43 246 1.7 6.1 0.00 0.00 0.00 57 1003.7
20260504201041 44 313 1.7 6.1 0.00 0.00 0.00 56 1003.7
20260504200543 45 320 1.7 6.1 0.00 0.00 0.00 56 1003.6
20260504200052 44 313 0.9 5.2 0.00 0.00 0.00 59 1003.6
20260504195539 44 254 2.6 5.2 0.00 0.00 0.00 59 1003.5
20260504195043 44 317 1.7 5.2 0.00 0.00 0.00 59 1003.7
20260504194601 44 271 0.9 7.0 0.00 0.00 0.00 59 1003.5
20260504194040 43 288 0.9 7.0 0.00 0.00 0.00 61 1003.5
20260504193544 43 336 1.7 7.0 0.00 0.00 0.00 60 1003.3
20260504193048 43 302 1.7 5.2 0.00 0.00 0.00 60 1003.3
20260504192540 44 269 1.7 5.2 0.00 0.00 0.00 61 1003.4
20260504192043 43 0 1.7 5.2 0.00 0.00 0.00 60 1003.2
20260504191608 43 275 1.7 7.0 0.00 0.00 0.00 60 1003.3
20260504191040 44 284 1.7 7.0 0.00 0.00 0.00 61 1003.2
20260504190540 44 302 1.7 7.0 0.00 0.00 0.00 61 1003.2
20260504190053 44 0 0.9 6.1 0.00 0.00 0.00 63 1003.2
20260504185541 44 285 2.6 6.1 0.00 0.00 0.00 61 1003.1
20260504185044 44 320 1.7 5.2 0.00 0.00 0.00 61 1003.2
20260504184550 43 300 2.6 9.6 0.00 0.00 0.00 60 1003.1
20260504184043 44 317 2.6 9.6 0.00 0.00 0.00 57 1003.1
20260504183540 44 286 2.6 7.0 0.00 0.00 0.00 57 1003.0
20260504183054 44 0 1.7 7.0 0.00 0.00 0.00 55 1002.9
20260504182542 45 0 0.9 7.0 0.00 0.00 0.00 55 1002.8
20260504182042 45 315 1.7 9.6 0.00 0.00 0.00 55 1002.8
20260504181557 45 273 1.7 9.6 0.00 0.00 0.00 56 1002.8
20260504181042 45 319 1.7 9.6 0.00 0.00 0.00 55 1002.8
20260504180543 44 292 2.6 7.8 0.00 0.00 0.00 56 1002.7
20260504180054 44 299 1.7 7.8 0.00 0.00 0.00 56 1002.7
20260504175543 44 329 1.7 7.0 0.00 0.00 0.00 57 1002.7
20260504175040 45 295 1.7 7.0 0.00 0.00 0.00 56 1002.8
20260504174553 44 296 0.9 7.0 0.00 0.00 0.00 58 1002.6
20260504174043 44 303 1.7 6.1 0.00 0.00 0.00 60 1002.6
20260504173540 43 9 2.6 5.2 0.00 0.00 0.00 59 1002.5
20260504173049 44 309 2.6 7.0 0.00 0.00 0.00 59 1002.5
20260504172545 44 308 2.6 7.8 0.00 0.00 0.00 60 1002.6
20260504172041 44 340 1.7 7.8 0.00 0.00 0.00 59 1002.4
20260504171552 44 294 1.7 7.0 0.00 0.00 0.00 59 1002.4
20260504171041 45 306 1.7 7.0 0.00 0.00 0.00 59 1002.2
20260504170540 45 303 1.7 7.0 0.00 0.00 0.00 59 1002.2
20260504151044 43 344 1.7 6.1 0.00 0.00 0.00 73 1000.7
20260504150543 43 300 0.9 7.0 0.00 0.00 0.00 73 1000.6
20260504150512 42 294 1.7 7.0 0.00 0.00 0.00 73 1000.5
20260504141040 43 0 1.7 7.0 0.00 0.00 0.00 71 1000.0
20260504140540 43 0 1.7 9.6 0.00 0.00 0.00 73 999.9
20260504130540 42 315 2.6 9.6 0.00 0.00 0.00 79 999.1
20260504110542 47 0 0.9 6.1 0.00 0.00 0.00 72 996.6
20260504100545 47 0 0.0 5.2 0.00 0.00 0.00 72 995.9
20260504090104 48 331 1.7 9.6 0.00 0.00 0.00 70 996.4
20260504081554 50 288 3.5 21.7 0.00 0.00 0.00 66 996.2
20260504081042 51 346 6.1 21.7 0.00 0.00 0.00 66 995.9
20260504080542 51 331 7.0 20.9 0.00 0.00 0.00 65 995.7
20260504050539 58 0 0.0 6.1 0.00 0.00 0.00 47 995.6
20260504045546 57 0 0.0 4.3 0.00 0.00 0.00 46 995.8
20260504045039 57 0 0.0 3.5 0.00 0.00 0.00 47 995.9
20260504044555 57 0 0.0 2.6 0.00 0.00 0.00 47 996.1
20260504044042 57 0 0.0 6.1 0.00 0.00 0.00 47 996.2
20260504043539 57 0 0.0 6.1 0.00 0.00 0.00 47 996.2
20260504043053 57 0 0.0 6.1 0.00 0.00 0.00 47 996.3
20260504042544 57 0 0.0 0.9 0.00 0.00 0.00 47 996.6
20260504042042 57 0 0.0 3.5 0.00 0.00 0.00 48 996.8
20260504041552 57 0 0.0 3.5 0.00 0.00 0.00 48 996.8
20260504041042 56 0 0.0 0.9 0.00 0.00 0.00 49 997.0
20260504040542 56 0 0.0 0.9 0.00 0.00 0.00 49 997.1
20260504040057 56 0 0.0 0.9 0.00 0.00 0.00 49 997.2
20260504035545 56 0 0.0 0.0 0.00 0.00 0.00 51 997.4
20260504035042 55 0 0.0 0.0 0.00 0.00 0.00 51 997.4
20260504034555 55 0 0.0 0.0 0.00 0.00 0.00 51 997.6
20260504034042 55 0 0.0 0.0 0.00 0.00 0.00 51 997.7
20260504033543 55 0 0.0 0.0 0.00 0.00 0.00 52 997.8
20260504033053 55 0 0.0 0.0 0.00 0.00 0.00 53 998.0
20260504032542 55 0 0.0 0.0 0.00 0.00 0.00 52 998.1
20260504032039 55 0 0.0 0.0 0.00 0.00 0.00 53 998.3
20260504031550 55 0 0.0 0.0 0.00 0.00 0.00 53 998.4
20260504031041 55 0 0.0 0.0 0.00 0.00 0.00 52 998.4
20260504030541 55 0 0.0 0.0 0.00 0.00 0.00 52 998.6
20260504030048 55 0 0.0 0.0 0.00 0.00 0.00 53 998.8
20260504025543 55 0 0.0 0.0 0.00 0.00 0.00 52 998.9
20260504025042 55 0 0.0 0.0 0.00 0.00 0.00 52 998.9
20260504024558 54 0 0.0 0.0 0.00 0.00 0.00 53 999.1
20260504024043 54 0 0.0 0.9 0.00 0.00 0.00 52 999.2
20260504023541 54 0 0.0 0.9 0.00 0.00 0.00 51 999.2
20260504023048 55 0 0.0 0.0 0.00 0.00 0.00 51 999.2
20260504022542 55 0 0.0 0.0 0.00 0.00 0.00 51 999.4
20260504022043 55 0 0.0 0.0 0.00 0.00 0.00 51 999.4
20260504021550 55 0 0.0 0.0 0.00 0.00 0.00 50 999.5
20260504021042 55 0 0.0 0.0 0.00 0.00 0.00 50 999.7
20260504020543 56 0 0.0 0.0 0.00 0.00 0.00 50 999.7
20260504020046 56 0 0.0 0.0 0.00 0.00 0.00 49 999.8
20260504015544 56 0 0.0 0.0 0.00 0.00 0.00 48 999.9
20260504015043 57 0 0.0 0.0 0.00 0.00 0.00 48 1000.0
20260504014554 57 0 0.0 0.0 0.00 0.00 0.00 47 1000.1
20260504014039 57 0 0.0 0.9 0.00 0.00 0.00 46 1000.2
20260504013542 58 0 0.0 0.9 0.00 0.00 0.00 46 1000.3
20260504013103 59 0 0.0 0.9 0.00 0.00 0.00 46 1000.4
20260504012543 59 0 0.0 0.0 0.00 0.00 0.00 45 1000.5
20260504012045 60 0 0.0 0.0 0.00 0.00 0.00 44 1000.7
20260504011549 60 0 0.0 0.0 0.00 0.00 0.00 43 1000.7
20260504011043 61 0 0.0 0.9 0.00 0.00 0.00 43 1000.9
20260504010543 62 0 0.0 0.9 0.00 0.00 0.00 42 1001.1
20260504010058 62 0 0.0 0.0 0.00 0.00 0.00 42 1001.1
20260504005542 63 0 0.0 0.0 0.00 0.00 0.00 41 1001.3
20260504005043 64 0 0.0 0.9 0.00 0.00 0.00 40 1001.4
20260504004600 64 0 0.0 0.9 0.00 0.00 0.00 39 1001.5
20260504004042 64 0 0.0 2.6 0.00 0.00 0.00 38 1001.6
20260504003543 65 0 0.0 2.6 0.00 0.00 0.00 37 1001.7
20260504003044 65 0 0.0 6.1 0.00 0.00 0.00 38 1001.8
20260504002544 65 0 0.0 6.1 0.00 0.00 0.00 37 1001.9
20260504002042 66 0 0.0 0.9 0.00 0.00 0.00 37 1002.0
20260504001549 66 0 0.0 0.9 0.00 0.00 0.00 36 1002.1
20260504001042 66 0 0.0 4.3 0.00 0.00 0.00 36 1002.2
20260504000544 67 0 0.0 5.2 0.00 0.00 0.00 37 1002.2
20260504000048 67 0 0.0 7.0 0.00 0.00 0.00 35 1002.2
20260503235542 67 0 0.0 7.0 0.00 0.00 0.00 35 1002.3
20260503235042 68 0 0.9 9.6 0.00 0.00 0.00 34 1002.4
20260503234549 68 0 0.0 9.6 0.00 0.00 0.00 35 1002.5
20260503234043 68 0 0.9 8.7 0.00 0.00 0.00 35 1002.6
20260503233543 68 0 0.0 9.6 0.00 0.00 0.00 34 1002.7
20260503233049 68 0 0.9 10.4 0.00 0.00 0.00 34 1002.8
20260503232543 68 282 2.6 10.4 0.00 0.00 0.00 34 1002.8
20260503232042 67 0 2.6 11.3 0.00 0.00 0.00 35 1003.0
20260503231549 68 248 1.7 13.9 0.00 0.00 0.00 33 1003.1
20260503231044 68 219 3.5 13.9 0.00 0.00 0.00 33 1003.2
20260503230545 69 252 0.0 9.6 0.00 0.00 0.00 34 1003.2
20260503230055 68 0 0.0 9.6 0.00 0.00 0.00 35 1003.2
20260503225542 68 250 1.7 9.6 0.00 0.00 0.00 33 1003.2
20260503225042 68 263 2.6 9.6 0.00 0.00 0.00 34 1003.3
20260503224549 68 282 0.9 9.6 0.00 0.00 0.00 35 1003.4
20260503224046 69 248 0.0 7.8 0.00 0.00 0.00 33 1003.6
20260503223543 68 0 0.0 7.8 0.00 0.00 0.00 34 1003.7
20260503223052 68 278 0.0 8.7 0.00 0.00 0.00 35 1003.7
20260503222542 67 0 0.9 9.6 0.00 0.00 0.00 34 1003.9
20260503222041 67 259 2.6 9.6 0.00 0.00 0.00 35 1004.0
20260503221550 67 0 2.6 9.6 0.00 0.00 0.00 34 1004.0
20260503221041 67 0 1.7 9.6 0.00 0.00 0.00 35 1004.2
20260503220541 66 258 3.5 9.6 0.00 0.00 0.00 34 1004.3
20260503220049 67 0 0.0 9.6 0.00 0.00 0.00 35 1004.2
20260503215540 67 262 1.7 9.6 0.00 0.00 0.00 33 1004.4
20260503215041 67 0 0.0 8.7 0.00 0.00 0.00 33 1004.5
20260503214550 66 252 0.9 9.6 0.00 0.00 0.00 35 1004.6
20260503214041 66 0 2.6 9.6 0.00 0.00 0.00 32 1004.5
20260503213542 67 223 0.9 8.7 0.00 0.00 0.00 33 1004.8
20260503213048 67 0 0.0 8.7 0.00 0.00 0.00 34 1004.8
20260503212542 66 0 0.9 8.7 0.00 0.00 0.00 33 1004.9
20260503212039 66 248 1.7 12.2 0.00 0.00 0.00 34 1004.9
20260503211549 66 259 2.6 12.2 0.00 0.00 0.00 33 1005.0
20260503211042 66 262 0.0 14.8 0.00 0.00 0.00 35 1005.0
20260503210541 65 0 3.5 14.8 0.00 0.00 0.00 32 1005.2
20260503210047 67 275 0.9 10.4 0.00 0.00 0.00 35 1005.3
20260503205541 65 255 3.5 11.3 0.00 0.00 0.00 33 1005.3